Тобол

Казахстан     52°41′37″N   62°35′41″E
темп.,
°C
ветер,
м/с
пор.,
м/с
влажн.,
%
обл.,
%
осадки,
мм/ч
давл.,
гПа
погр.,
м
1 марта, пн
пн123:00−8с4695100 1.3 1006195
02:00−11ссз359689 0.2 1007108
05:00−14ссз359689 0.3 1010134
08:00−16ссз349675 0.1 101273
11:00−14ссз349482 0.1 1014229
14:00−13сз239086 0.0 1016251
17:00−14сз229490 0.0 101720
20:00−16с119687 0.1 101720
2 марта, вт
вт223:00−16зюз019782 0.1 101820
02:00−16юз129675 0.1 101720
05:00−15юз129680 0.1 101620
08:00−16ююз239688 0.1 101523
11:00−13юз469487 0.1 1015254
14:00−14юз589173 0.0 1014321
17:00−15юз5109160 0.0 1013306
20:00−17юз6129136 0.0 1012270
3 марта, ср
ср323:00−14юз7139063 0.0 1012409
02:00−12юз8159399 0.1 1010580
05:00−9юз8159199 0.4 1009597
08:00−7юз81594100 0.5 1007666
11:00−4юз91493100 1.3 1007866
14:00−2юз91493100 0.3 1006944
17:00−2юз81394100 0.7 1005856
20:00−2юз81495100 0.3 1004674
4 марта, чт
чт423:00−2юз71395100 0.8 1004601
02:00−2юз61196100 0.6 1002557
05:00−2юз51097100 1.2 1002458
08:00−3з4896100 0.8 1002357
11:00−5зсз5985100 1.1 1004377
14:00−6зсз488523 0.0 1005428
17:00−8з488712 0.0 1007158
20:00−11зюз58870 0.0 1010121
5 марта, пт
пт523:00−11зюз613860 0.0 1011235
02:00−11юз7168619 0.0 1010361
05:00−9юз9178755 0.0 1009609
08:00−7юз10188699 0.0 1008761
11:00−3зюз12198399 0.0 1007993
14:00−1зюз111883100 0.0 10081104
17:00−1зюз91685100 0.0 10101003
20:00−1зюз91685100 0.0 1012854